Weather History for Holdrege, NE

Change the Weather History Date:

Monday, March 5, 2012

  Actual Average Record
Temperature  
Mean Temperature 48 °F -  
Max Temperature 71 °F 45 °F 75 °F (2009)
Min Temperature 26 °F 22 °F -3 °F (1976)
Degree Days  
Heating Degree Days 16    
Moisture  
Dew Point 24 °F    
Average Humidity 55    
Maximum Humidity 84    
Minimum Humidity 16    
Precipitation  
Precipitation 0.00 in - - ()
Sea Level Pressure  
Sea Level Pressure 30.06 in    
Wind  
Wind Speed 12 mph (South)    
Max Wind Speed 29 mph    
Max Gust Speed 39 mph    
Visibility 10 miles    
Events      
Averages and records for this station are not official NWS values.
T = Trace of Precipitation, MM = Missing Value Source: NWS Daily Summary

Daily Weather History Graph

Daily Weather History Graph

Search for Another Location

Airport:

Trip Planner

Search our weather history database for the weather conditions in past years. The results will help you decide how hot, cold, wet, or windy it might be!

Date:

Astronomy

Mar. 05, 2012 Rise Set
Actual Time 7:04 AM CST 6:33 PM CST
Civil Twilight 6:36 AM CST 7:01 PM CST
Nautical Twilight 6:05 AM CST 7:32 PM CST
Astronomical Twilight 5:33 AM CST 8:04 PM CST
Moon 3:53 PM CST (3/5) 5:04 AM CST (3/5)
Length of Visible Light 12h 24m
Length of Day
11h 29m
Waxing Gibbous, 91% of the Moon is Illuminated
Mar 5
Waxing Gibbous
Mar 8
Full
Mar 14
Last Quarter
Mar 22
New
Mar 30
First Quarter

Hourly Weather History & Observations

Time (CST) Temp. Windchill Dew Point Humidity Pressure Visibility Wind Dir Wind Speed Gust Speed Precip Events Conditions
12:15 AM 27.5 °F 22.2 °F 21.7 °F 79% 30.19 in 10.0 mi ESE 4.6 mph - N/A   Clear
12:35 AM 28.4 °F 23.3 °F 23.2 °F 81% 30.19 in 10.0 mi SE 4.6 mph - N/A   Clear
12:55 AM 27.5 °F 21.1 °F 22.6 °F 82% 30.19 in 10.0 mi South 5.8 mph - N/A   Clear
1:15 AM 26.1 °F 19.4 °F 21.9 °F 84% 30.19 in 10.0 mi SSE 5.8 mph - N/A   Clear
1:35 AM 28.0 °F 20.8 °F 23.0 °F 81% 30.20 in 10.0 mi South 6.9 mph - N/A   Clear
1:55 AM 27.5 °F 20.2 °F 22.6 °F 82% 30.20 in 10.0 mi South 6.9 mph - N/A   Clear
2:15 AM 29.3 °F 22.3 °F 23.5 °F 79% 30.20 in 10.0 mi South 6.9 mph - N/A   Clear
2:35 AM 29.5 °F 21.8 °F 23.7 °F 79% 30.19 in 10.0 mi South 8.1 mph - N/A   Clear
2:55 AM 29.1 °F 20.0 °F 23.9 °F 81% 30.19 in 10.0 mi South 10.4 mph - N/A   Clear
3:15 AM 29.1 °F 20.6 °F 24.4 °F 83% 30.18 in 10.0 mi South 9.2 mph - N/A   Clear
3:35 AM 28.2 °F 20.2 °F 23.7 °F 83% 30.18 in 10.0 mi South 8.1 mph - N/A   Clear
3:55 AM 28.8 °F 19.5 °F 23.9 °F 82% 30.17 in 10.0 mi South 10.4 mph - N/A   Clear
4:15 AM 27.3 °F 19.9 °F 22.6 °F 83% 30.17 in 10.0 mi South 6.9 mph - N/A   Clear
4:35 AM 27.9 °F 17.8 °F 23.7 °F 84% 30.17 in 10.0 mi South 11.5 mph - N/A   Clear
4:55 AM 28.9 °F 19.8 °F 24.1 °F 82% 30.16 in 10.0 mi South 10.4 mph - N/A   Clear
5:15 AM 29.8 °F 20.9 °F 24.1 °F 79% 30.16 in 10.0 mi South 10.4 mph - N/A   Clear
5:35 AM 29.5 °F 19.3 °F 23.5 °F 79% 30.15 in 10.0 mi South 12.7 mph - N/A   Clear
5:55 AM 29.1 °F 19.4 °F 23.4 °F 79% 30.16 in 10.0 mi South 11.5 mph - N/A   Clear
6:15 AM 29.3 °F 20.2 °F 23.0 °F 77% 30.16 in 10.0 mi South 10.4 mph - N/A   Clear
6:35 AM 28.0 °F 21.7 °F 22.3 °F 79% 30.15 in 10.0 mi South 5.8 mph - N/A   Clear
6:55 AM 28.0 °F 20.8 °F 22.1 °F 78% 30.14 in 10.0 mi South 6.9 mph - N/A   Clear
7:15 AM 27.0 °F 19.5 °F 21.6 °F 80% 30.14 in 10.0 mi South 6.9 mph - N/A   Clear
7:35 AM 27.3 °F 19.9 °F 22.1 °F 81% 30.14 in 10.0 mi South 6.9 mph - N/A   Clear
7:55 AM 30.7 °F 20.4 °F 23.0 °F 73% 30.14 in 10.0 mi South 13.8 mph - N/A   Clear
8:15 AM 32.2 °F 22.3 °F 23.7 °F 71% 30.13 in 10.0 mi South 13.8 mph 20.7 mph N/A   Clear
8:35 AM 34.0 °F 23.8 °F 24.3 °F 68% 30.14 in 10.0 mi SSW 16.1 mph 20.7 mph N/A   Clear
8:55 AM 35.8 °F 26.1 °F 24.4 °F 63% 30.14 in 10.0 mi SSW 16.1 mph - N/A   Clear
9:15 AM 37.4 °F 26.1 °F 23.9 °F 58% 30.14 in 10.0 mi SSW 24.2 mph 29.9 mph N/A   Clear
9:35 AM 39.4 °F 29.2 °F 23.5 °F 53% 30.13 in 10.0 mi SSW 21.9 mph 31.1 mph N/A   Clear
9:55 AM 41.0 °F 31.6 °F 24.3 °F 51% 30.12 in 10.0 mi South 20.7 mph 27.6 mph N/A   Clear
10:15 AM 42.4 °F 33.3 °F 23.9 °F 48% 30.11 in 10.0 mi South 21.9 mph 27.6 mph N/A   Clear
10:35 AM 43.5 °F 34.5 °F 24.1 °F 46% 30.10 in 10.0 mi SSW 23.0 mph 32.2 mph N/A   Clear
10:55 AM 45.5 °F 37.8 °F 25.2 °F 45% 30.08 in 10.0 mi South 19.6 mph 28.8 mph N/A   Clear
11:15 AM 46.6 °F - 25.3 °F 43% 30.07 in 10.0 mi SSW 25.3 mph 29.9 mph N/A   Clear
11:35 AM 49.3 °F - 26.1 °F 40% 30.06 in 10.0 mi South 23.0 mph 31.1 mph N/A   Clear
11:55 AM 51.3 °F - 25.5 °F 37% 30.04 in 10.0 mi South 26.5 mph 33.4 mph N/A   Clear
12:15 PM 52.3 °F - 25.5 °F 35% 30.04 in 10.0 mi SSW 28.8 mph 38.0 mph N/A   Clear
12:35 PM 54.3 °F - 26.2 °F 34% 30.01 in 10.0 mi SSW 27.6 mph 39.1 mph N/A   Clear
12:55 PM 56.5 °F - 26.6 °F 32% 30.00 in 10.0 mi SSW 23.0 mph 35.7 mph N/A   Clear
1:15 PM 58.5 °F - 26.6 °F 30% 29.98 in 10.0 mi SSW 26.5 mph 35.7 mph N/A   Clear
1:35 PM 59.7 °F - 26.2 °F 28% 29.96 in 10.0 mi SSW 26.5 mph 31.1 mph N/A   Clear
1:55 PM 61.2 °F - 26.4 °F 27% 29.94 in 10.0 mi South 23.0 mph 32.2 mph N/A   Clear
2:15 PM 62.8 °F - 26.6 °F 25% 29.93 in 10.0 mi South 20.7 mph 27.6 mph N/A   Clear
2:35 PM 63.9 °F - 26.6 °F 24% 29.91 in 10.0 mi SSW 18.4 mph 31.1 mph N/A   Clear
2:55 PM 64.9 °F - 26.4 °F 23% 29.90 in 10.0 mi SSW 23.0 mph 28.8 mph N/A   Clear
3:15 PM 66.2 °F - 26.1 °F 22% 29.89 in 10.0 mi SSW 20.7 mph 26.5 mph N/A   Clear
3:35 PM 68.0 °F - 26.1 °F 21% 29.87 in 10.0 mi South 18.4 mph 27.6 mph N/A   Clear
3:55 PM 68.5 °F - 26.2 °F 20% 29.86 in 10.0 mi SSW 13.8 mph - N/A   Clear
4:15 PM 69.8 °F - 25.0 °F 19% 29.85 in 10.0 mi SSW 13.8 mph 23.0 mph N/A   Clear
4:35 PM 70.5 °F - 25.0 °F 18% 29.85 in 10.0 mi SSW 15.0 mph 18.4 mph N/A   Clear
4:55 PM 70.9 °F - 23.0 °F 17% 29.84 in 10.0 mi SW 10.4 mph - N/A   Clear
5:15 PM 71.1 °F - 23.2 °F 17% 29.83 in 10.0 mi SSW 11.5 mph - N/A   Clear
5:35 PM 70.7 °F - 22.8 °F 16% 29.82 in 10.0 mi SSW 8.1 mph - N/A   Clear
5:55 PM 68.5 °F - 23.7 °F 18% 29.81 in 10.0 mi South 6.9 mph - N/A   Clear
6:15 PM 65.3 °F - 26.6 °F 23% 29.81 in 10.0 mi South 13.8 mph - N/A   Clear
6:35 PM 62.8 °F - 27.0 °F 26% 29.80 in 10.0 mi SSE 12.7 mph - N/A   Clear
6:55 PM 59.7 °F - 27.1 °F 29% 29.79 in 10.0 mi SE 13.8 mph - N/A   Clear
7:15 PM 57.9 °F - 27.1 °F 31% 29.79 in 10.0 mi SE 8.1 mph - N/A   Clear
7:35 PM 57.9 °F - 28.9 °F 33% 29.78 in 10.0 mi SE 16.1 mph - N/A   Clear
7:55 PM 55.2 °F - 29.1 °F 37% 29.77 in 10.0 mi SE 11.5 mph - N/A   Clear
8:15 PM 55.0 °F - 28.4 °F 36% 29.77 in 10.0 mi SE 9.2 mph - N/A   Clear
8:35 PM 50.5 °F - 28.8 °F 43% 29.76 in 10.0 mi SSE 8.1 mph - N/A   Clear
8:55 PM 50.9 °F - 30.7 °F 46% 29.76 in 10.0 mi SSE 10.4 mph - N/A   Clear
9:15 PM 53.1 °F - 31.5 °F 44% 29.75 in 10.0 mi South 13.8 mph - N/A   Clear
9:55 PM 53.1 °F - 29.5 °F 40% 29.74 in 10.0 mi South 13.8 mph - N/A   Clear
10:15 PM 50.9 °F - 28.9 °F 43% 29.74 in 10.0 mi South 12.7 mph - N/A   Clear
10:35 PM 51.1 °F - 27.5 °F 40% 29.75 in 10.0 mi South 13.8 mph - N/A   Clear
10:55 PM 50.7 °F - 26.2 °F 39% 29.74 in 10.0 mi SSW 12.7 mph - N/A   Clear
11:15 PM 49.5 °F - 25.0 °F 38% 29.74 in 10.0 mi SSW 10.4 mph - N/A   Clear
11:35 PM 46.4 °F 41.5 °F 24.8 °F 43% 29.73 in 10.0 mi SSW 10.4 mph - N/A   Clear
11:55 PM 47.1 °F - 24.4 °F 41% 29.73 in 10.0 mi SSW 13.8 mph - N/A   Clear